カタログに戻る

FENGYUN 1C DEB

運用中PO
NORAD 30525·DEBRIS·🇨🇳 China

打ち上げ May 10, 1999 から Taiyuan Satellite Launch Center

Loading…

次のパス (今後24時間)

TLE

最新Source: Space-Track

元期: Sep 14, 2026, 12:55 UTC

1 30525U 99025AJP 26257.53827527  .00000863  00000-0  92270-3 0  9991
2 30525  98.5803 114.0990 0292526 309.0821  48.4630 13.59273948968631

AllMySatでFENGYUN 1C DEBをリアルタイム追跡

Download on the App Store